Wind_Speed
74 72 71 70 69 66 59 52 48 51 53 51 52 51 49 48 49 50 46 42 41 41 43 41 38 37 37 36 33 32 32 32 34 35 32 28 25 24 21 22 26 28 29
56 52 50 48 49 50 53 52 50 52 52 50 49 46 42 39 38 36 34 34 34 31 29 29 30 32 32 32 32 34 32 33 37 33 30 26 23 20 27 26 25 34 32
51 46 45 46 48 53 52 52 55 54 49 45 42 41 37 33 30 28 28 27 25 24 25 25 25 27 30 31 30 30 30 28 29 28 24 22 23 22 26 30 28 36 32
45 43 47 52 57 58 54 54 53 46 40 35 33 31 28 25 25 24 21 20 22 25 26 26 24 23 27 27 27 27 24 22 23 22 20 20 22 24 25 28 30 38 24
52 53 56 62 58 50 48 45 38 33 30 27 24 23 24 21 19 18 20 23 25 25 21 18 17 20 21 20 19 19 18 17 19 20 19 17 19 23 23 25 24 29 23
55 59 62 53 44 40 36 31 26 23 22 20 20 20 17 17 19 22 22 19 15 11 9 11 13 15 13 11 10 11 13 15 15 14 15 18 19 20 20 21 21 29 26
57 53 43 33 30 29 24 20 19 18 17 16 16 16 18 21 23 23 17 10 6 5 6 9 10 8 3 4 3 6 10 11 13 12 10 17 19 20 23 22 24 31 30
43 32 25 25 21 16 15 15 16 15 14 15 18 22 22 20 18 14 9 5 5 5 6 7 6 5 5 4 1 4 6 7 10 11 13 17 19 21 22 26 31 30 25
29 23 19 13 10 11 13 14 13 15 18 20 18 18 13 8 6 4 2 3 4 3 2 3 3 4 6 6 5 8 9 11 17 18 16 18 19 21 21 21 23 23 21
15 9 6 6 8 11 14 16 16 16 14 14 13 12 9 7 5 4 2 3 4 5 7 10 9 7 2 1 3 6 6 6 9 13 15 15 14 15 18 19 19 18 19
3 4 6 7 9 14 17 15 13 13 13 12 11 12 12 10 10 6 3 3 5 7 10 10 9 11 9 8 7 8 8 6 8 11 15 16 15 15 15 15 13 16 18
5 5 8 9 12 14 12 14 16 16 16 15 13 11 12 12 11 9 8 7 6 6 7 4 1 5 8 11 11 10 10 8 10 18 22 23 20 20 20 19 17 15 16
8 7 8 9 10 13 13 14 14 14 15 15 14 12 11 10 9 8 8 8 7 6 4 5 7 8 9 8 10 10 8 6 4 10 19 22 21 20 20 16 13 13 17
13 12 13 15 15 13 13 12 13 13 14 16 16 15 14 13 12 12 12 14 13 11 7 3 1 3 6 8 7 5 4 6 6 7 9 11 15 18 18 17 17 17 18
27 29 27 23 17 15 14 13 15 17 19 20 22 23 23 21 20 20 19 19 19 18 17 13 9 8 9 8 8 7 6 6 7 7 8 10 11 13 16 18 19 19 18
32 28 24 20 18 16 17 18 20 21 23 24 24 24 24 25 25 23 22 20 20 21 21 21 20 18 17 15 13 12 11 10 9 10 9 9 11 11 12 13 13 14 16
26 24 22 20 19 20 21 22 24 25 25 26 26 26 26 26 26 27 26 25 21 18 18 20 23 24 23 22 20 18 17 15 13 12 10 9 8 8 8 9 10 13 15
23 21 21 22 23 24 24 25 26 26 26 26 25 24 24 23 23 23 23 23 23 23 20 16 17 21 24 25 25 23 22 20 19 18 16 14 12 10 9 10 12 15 17
21 21 22 24 26 28 29 30 31 32 31 29 26 24 22 20 20 20 20 20 19 18 18 18 14 14 19 23 25 25 25 23 22 21 20 18 16 14 13 13 15 17 20
20 21 23 27 32 35 36 36 37 37 34 33 30 27 24 23 24 23 22 22 22 19 16 14 11 8 9 16 21 23 24 24 23 22 21 20 20 19 18 18 18 20 22
20 21 25 31 35 37 38 39 40 39 37 35 33 30 25 22 26 27 27 26 24 19 15 12 9 6 1 8 15 19 22 23 24 23 22 22 23 23 23 22 22 24 26
20 24 29 35 40 42 43 43 42 41 40 40 38 33 26 24 26 29 30 29 25 18 12 9 8 7 5 7 12 17 20 23 24 25 26 26 26 26 26 27 26 28 30
21 26 31 37 41 43 44 45 44 43 42 42 42 36 29 26 27 30 32 31 27 22 14 9 8 8 7 7 9 12 17 21 24 26 27 28 28 28 28 29 29 30 32
23 28 33 37 40 43 45 47 47 46 45 43 42 39 34 30 29 32 33 32 30 26 20 15 11 9 9 8 8 11 15 19 22 25 27 28 29 29 31 31 31 31 31
23 28 33 36 39 42 45 46 47 49 50 48 44 40 37 34 32 33 34 33 30 27 26 22 17 15 14 12 11 12 15 18 22 24 26 28 30 31 33 33 32 30 30
24 28 31 33 37 40 43 45 47 48 51 53 52 47 42 37 34 34 35 34 32 28 26 23 20 19 19 19 16 13 15 18 20 23 27 29 30 32 33 33 29 26 28
Wind_Direction
291 292 291 288 288 290 291 288 291 292 292 293 291 290 291 289 287 283 282 284 284 281 275 272 273 272 274 274 274 276 275 277 277 278 273 267 258 240 223 214 217 202 192
298 299 297 295 296 295 298 297 296 295 293 292 292 294 295 293 288 283 283 284 283 281 277 276 275 272 270 272 275 275 273 266 266 269 266 256 240 229 216 218 194 186 182
297 294 294 295 296 298 296 294 294 295 295 292 291 294 295 295 294 293 293 293 291 288 284 281 279 279 278 275 272 269 269 263 260 262 259 243 232 223 219 218 207 190 193
295 292 294 300 299 298 296 296 297 297 294 292 292 294 295 298 302 302 300 296 296 293 287 286 287 287 283 274 266 265 261 256 257 255 250 235 228 221 216 216 212 196 198
295 295 298 302 302 301 300 301 301 299 295 295 295 296 299 303 304 306 306 300 300 300 299 298 296 295 287 271 269 261 255 252 254 243 237 225 219 214 215 217 204 204 207
295 295 301 305 304 302 303 306 308 306 303 297 296 301 303 305 309 314 315 305 299 303 315 325 316 304 281 271 271 248 244 240 240 227 221 228 213 207 215 215 197 196 206
298 302 306 306 305 306 308 311 312 310 308 311 312 307 303 306 313 318 315 297 286 307 333 337 338 342 294 282 249 225 226 209 208 219 219 208 194 186 189 184 193 206 218
306 311 310 309 313 320 324 323 320 317 314 313 309 309 312 312 307 306 302 288 296 332 344 355 16 49 42 18 42 118 138 184 195 197 187 170 165 175 182 190 197 203 208
310 311 311 317 331 336 336 331 325 316 314 318 326 326 324 329 333 332 337 351 319 332 5 8 9 65 57 58 98 137 133 139 142 150 150 156 169 179 184 191 198 203 207
308 319 342 355 352 349 345 340 338 333 329 331 341 354 351 340 349 1 347 303 297 286 275 300 274 257 309 44 139 159 167 146 142 149 156 159 176 185 189 191 198 208 215
59 48 22 14 4 351 345 357 12 18 23 24 28 35 33 28 37 43 49 6 331 322 309 294 268 271 224 211 204 207 209 198 195 184 182 189 199 201 200 203 209 215 217
83 44 31 24 4 6 36 54 51 42 37 27 19 21 29 27 25 32 35 22 10 347 350 21 175 192 177 199 209 210 202 194 207 208 202 204 219 222 214 220 228 228 230
80 58 48 40 45 60 63 58 49 36 25 16 12 8 5 358 352 340 335 336 340 351 8 42 62 107 126 149 167 167 165 172 174 188 202 211 213 205 196 201 214 217 212
80 75 77 83 84 68 59 44 27 13 1 352 345 339 333 324 317 307 297 296 297 296 291 275 225 163 173 184 193 201 198 181 185 168 167 177 183 184 184 188 193 197 198
98 96 90 84 74 58 40 20 3 352 344 339 337 333 330 326 318 307 298 289 282 276 273 269 249 217 217 227 227 212 199 183 171 169 166 165 167 172 184 191 194 199 201
91 86 79 69 55 37 18 4 355 351 345 342 343 337 332 327 323 320 313 303 291 280 269 262 255 247 241 237 230 225 214 203 190 177 168 161 160 166 174 183 188 191 192
81 74 66 54 40 28 18 8 0 354 349 343 342 336 331 328 325 323 321 318 312 298 279 265 255 249 243 239 232 226 223 215 206 198 188 183 178 170 163 165 170 174 177
75 66 56 45 35 26 17 10 5 1 356 350 346 340 337 335 334 333 333 333 333 327 316 294 266 251 243 239 235 229 224 219 212 207 203 202 200 195 184 176 176 173 171
67 56 47 39 32 26 22 18 14 10 4 1 1 359 358 0 6 5 0 355 350 342 334 322 301 261 241 235 232 229 226 220 215 210 206 205 203 198 192 188 186 182 176
58 48 41 37 32 29 26 22 18 15 13 13 14 13 16 19 14 9 5 1 356 350 347 342 331 304 242 224 221 220 218 218 215 211 205 201 198 196 194 193 191 184 178
51 46 43 40 37 34 30 27 24 22 22 17 14 13 16 15 10 10 8 3 358 355 354 358 1 358 218 193 197 202 203 203 204 202 197 194 193 193 194 193 191 184 177
51 47 44 42 38 35 31 29 26 25 22 19 15 15 17 15 12 11 9 7 5 4 5 21 34 47 87 140 168 181 188 188 188 186 185 187 188 189 191 191 188 181 177
53 50 47 44 40 37 34 31 29 27 25 23 21 21 22 20 16 14 13 15 18 21 28 45 63 70 81 110 144 167 178 181 180 180 180 182 184 186 186 184 181 178 176
55 51 49 45 41 38 36 34 32 30 27 24 23 24 25 24 23 20 21 25 27 33 40 48 63 74 75 89 125 153 166 171 174 176 178 179 181 181 180 178 175 174 175
56 52 49 45 41 38 36 34 33 31 29 26 24 23 25 27 28 27 28 32 36 40 42 49 62 69 72 82 104 133 152 161 167 172 176 178 178 177 176 176 173 171 174
54 51 48 44 41 39 36 34 33 32 31 29 29 29 31 35 38 36 36 38 41 43 45 50 63 70 74 77 84 109 137 149 158 166 172 176 176 174 173 172 170 169 172
Height
5688 5681 5675 5670 5666 5661 5655 5648 5640 5634 5628 5621 5616 5611 5605 5598 5595 5594 5591 5587 5585 5583 5582 5582 5582 5581 5581 5579 5578 5577 5577 5576 5576 5577 5578 5581 5583 5585 5591 5595 5600 5610 5621
5672 5666 5660 5655 5651 5646 5639 5632 5625 5621 5615 5610 5605 5599 5593 5588 5586 5583 5580 5577 5575 5573 5571 5571 5571 5570 5569 5569 5568 5568 5566 5567 5567 5567 5568 5571 5574 5577 5584 5588 5593 5601 5610
5659 5654 5649 5644 5639 5633 5626 5620 5614 5608 5603 5598 5593 5588 5583 5580 5577 5573 5570 5568 5566 5564 5562 5562 5561 5560 5559 5558 5557 5557 5557 5557 5558 5558 5560 5563 5567 5572 5577 5583 5588 5596 5604
5646 5641 5637 5632 5626 5619 5612 5606 5600 5594 5590 5586 5582 5578 5575 5571 5569 5566 5563 5561 5559 5557 5555 5554 5553 5552 5549 5547 5548 5548 5548 5550 5551 5553 5556 5558 5562 5567 5572 5577 5583 5590 5598
5633 5628 5622 5618 5612 5603 5598 5593 5587 5583 5579 5576 5573 5571 5567 5565 5563 5561 5559 5556 5553 5551 5549 5547 5545 5543 5539 5539 5538 5539 5541 5544 5546 5549 5551 5554 5558 5563 5568 5574 5579 5586 5593
5620 5615 5611 5605 5599 5592 5588 5583 5579 5576 5573 5570 5567 5565 5564 5562 5560 5556 5553 5549 5547 5546 5545 5543 5540 5537 5536 5534 5534 5535 5537 5540 5542 5544 5547 5552 5556 5560 5567 5572 5578 5586 5589
5609 5604 5599 5594 5590 5586 5582 5579 5576 5573 5570 5567 5565 5563 5560 5557 5554 5551 5547 5545 5544 5544 5543 5541 5538 5535 5532 5531 5532 5533 5535 5536 5538 5542 5544 5548 5552 5557 5564 5570 5577 5581 5585
5599 5595 5592 5589 5587 5584 5581 5577 5574 5571 5568 5566 5564 5560 5557 5553 5549 5547 5545 5544 5545 5545 5543 5541 5539 5535 5532 5531 5532 5533 5534 5535 5536 5539 5542 5545 5551 5557 5562 5568 5572 5577 5581
5592 5591 5590 5588 5587 5585 5581 5577 5573 5570 5567 5564 5562 5558 5554 5551 5548 5546 5546 5546 5546 5545 5544 5542 5540 5538 5536 5535 5535 5535 5535 5536 5537 5540 5543 5546 5551 5556 5560 5565 5570 5575 5578
5589 5589 5589 5589 5588 5585 5582 5578 5574 5570 5566 5563 5561 5557 5554 5552 5549 5547 5545 5544 5544 5543 5542 5541 5539 5538 5539 5540 5539 5538 5538 5539 5541 5542 5544 5547 5551 5555 5560 5564 5569 5572 5576
5590 5591 5592 5591 5589 5586 5582 5578 5574 5571 5567 5564 5561 5559 5557 5553 5551 5548 5546 5544 5542 5540 5538 5536 5536 5535 5537 5539 5539 5539 5539 5539 5541 5542 5545 5548 5552 5556 5561 5564 5567 5570 5573
5593 5594 5594 5593 5590 5587 5584 5581 5578 5575 5571 5567 5564 5562 5559 5556 5553 5550 5548 5545 5542 5540 5536 5533 5532 5532 5533 5535 5537 5537 5538 5539 5539 5541 5544 5547 5551 5554 5558 5561 5564 5566 5570
5595 5596 5595 5594 5592 5590 5588 5586 5583 5579 5574 5570 5567 5564 5561 5558 5554 5551 5549 5546 5543 5540 5538 5536 5534 5532 5533 5535 5535 5536 5538 5539 5538 5539 5541 5544 5547 5550 5554 5557 5559 5563 5567
5599 5598 5598 5597 5597 5596 5594 5591 5587 5583 5579 5574 5569 5565 5562 5557 5554 5551 5547 5544 5542 5539 5537 5537 5536 5534 5534 5535 5536 5536 5537 5538 5538 5539 5541 5542 5545 5548 5551 5555 5558 5562 5566
5604 5604 5604 5604 5604 5602 5599 5595 5591 5586 5580 5574 5568 5562 5557 5553 5549 5545 5542 5540 5537 5535 5534 5534 5534 5534 5533 5534 5534 5535 5536 5537 5538 5539 5541 5543 5546 5548 5551 5556 5559 5563 5566
5615 5613 5613 5612 5610 5606 5602 5597 5592 5586 5579 5572 5566 5559 5553 5547 5542 5537 5534 5532 5530 5528 5528 5528 5528 5529 5530 5531 5532 5533 5535 5536 5538 5539 5541 5543 5546 5548 5552 5555 5558 5561 5564
5623 5621 5619 5617 5614 5609 5604 5598 5591 5585 5579 5571 5565 5557 5550 5543 5537 5531 5526 5523 5520 5520 5519 5518 5519 5520 5522 5525 5527 5529 5531 5533 5536 5539 5541 5543 5546 5549 5552 5555 5558 5561 5564
5630 5628 5625 5622 5618 5612 5605 5599 5592 5585 5578 5570 5563 5555 5548 5541 5535 5529 5524 5519 5515 5511 5508 5508 5509 5510 5513 5516 5519 5522 5526 5529 5532 5536 5540 5543 5546 5550 5554 5556 5559 5561 5564
5636 5634 5631 5627 5622 5615 5608 5600 5592 5584 5576 5568 5560 5553 5547 5541 5535 5530 5525 5520 5515 5510 5505 5501 5500 5502 5504 5507 5510 5515 5519 5524 5528 5532 5537 5541 5545 5550 5553 5556 5559 5561 5565
5642 5639 5635 5630 5622 5615 5608 5600 5592 5584 5575 5566 5559 5552 5546 5541 5535 5530 5525 5519 5514 5508 5504 5500 5496 5495 5496 5499 5503 5507 5513 5518 5523 5528 5533 5538 5542 5547 5551 5555 5558 5561 5565
5646 5643 5639 5633 5626 5619 5611 5604 5595 5586 5578 5570 5562 5554 5547 5542 5536 5530 5524 5518 5512 5506 5501 5498 5495 5493 5493 5494 5497 5501 5506 5512 5517 5523 5529 5534 5539 5544 5549 5553 5557 5561 5565
5651 5647 5642 5635 5628 5621 5614 5606 5598 5590 5581 5572 5563 5555 5548 5543 5537 5531 5525 5518 5510 5504 5500 5497 5495 5494 5493 5494 5496 5498 5502 5507 5513 5519 5525 5531 5536 5542 5547 5552 5556 5560 5564
5655 5651 5646 5640 5633 5626 5619 5611 5602 5594 5585 5576 5567 5558 5551 5545 5540 5534 5526 5518 5511 5504 5500 5498 5496 5496 5495 5495 5496 5498 5500 5505 5510 5516 5522 5528 5534 5540 5545 5550 5555 5560 5565
5659 5655 5650 5644 5639 5632 5624 5616 5608 5599 5590 5581 5572 5563 5556 5549 5543 5537 5530 5522 5515 5508 5503 5500 5499 5498 5498 5497 5497 5499 5501 5504 5509 5515 5520 5526 5532 5538 5544 5550 5555 5560 5565
5664 5660 5655 5650 5644 5637 5629 5622 5614 5605 5596 5586 5576 5567 5559 5552 5547 5541 5534 5527 5521 5516 5511 5507 5504 5502 5501 5500 5500 5501 5502 5505 5509 5514 5520 5526 5531 5538 5545 5551 5556 5561 5567
5670 5665 5660 5655 5649 5642 5636 5628 5621 5613 5604 5593 5583 5573 5565 5558 5552 5547 5540 5534 5528 5523 5518 5514 5511 5509 5507 5506 5505 5505 5506 5508 5511 5516 5521 5527 5533 5540 5547 5553 5558 5563 5567